SALT Weather Reports


Display with metric or nautical units.
time (UTC)temp
F
wind
direction
speed
MPH
gust
MPH
rain 1hr
in
rain 24hr
in
rain mn
in
humidity
%
barometer
mb
20190117153107 31 147 7.0 0.0 0.00 0.00 0.00 96 999.3
20190117152104 31 148 8.0 0.0 0.00 0.00 0.00 96 999.3
20190117151102 31 161 9.0 0.0 0.00 0.00 0.00 96 999.4
20190117150056 31 187 8.0 0.0 0.00 0.00 0.00 96 999.3
20190117145054 31 172 8.0 0.0 0.00 0.00 0.00 96 999.3
20190117144052 31 141 8.0 0.0 0.00 0.00 0.00 96 999.3
20190117143049 31 147 8.0 0.0 0.00 0.00 0.00 95 999.2
20190117142046 31 149 9.0 0.0 0.00 0.00 0.00 95 999.4
20190117141043 31 189 10.0 0.0 0.00 0.00 0.00 96 999.2
20190117140039 31 145 11.0 0.0 0.00 0.00 0.00 95 999.3
20190117135036 32 147 11.0 0.0 0.00 0.00 0.00 95 999.1
20190117134033 32 176 12.0 0.0 0.00 0.00 0.00 95 999.0
20190117133031 32 173 13.0 0.0 0.00 0.00 0.00 95 998.8
20190117132029 32 185 14.0 0.0 0.00 0.00 0.00 95 998.7
20190117131026 32 152 15.0 0.0 0.00 0.00 0.00 95 998.6
20190117130021 32 141 19.0 0.0 0.00 0.00 0.00 95 998.5
20190117125018 32 148 16.0 0.0 0.00 0.00 0.00 95 998.5
20190117124016 32 154 15.0 0.0 0.00 0.00 0.00 95 998.5
20190117123013 32 181 16.0 0.0 0.00 0.00 0.00 95 998.5
20190117122010 32 160 18.0 0.0 0.00 0.00 0.00 95 998.7
20190117121008 32 174 15.0 0.0 0.00 0.00 0.00 95 998.8
20190117120003 32 149 15.0 0.0 0.00 0.00 0.00 95 999.0
20190117115001 32 174 14.0 0.0 0.00 0.00 0.00 95 999.0
20190117113958 32 182 13.0 0.0 0.00 0.00 0.00 95 999.2
20190117112955 32 185 13.0 0.0 0.00 0.00 0.00 95 999.4
20190117111953 32 201 11.0 0.0 0.00 0.00 0.00 95 999.9
20190117110950 32 155 12.0 0.0 0.00 0.00 0.00 95 1000.1
20190117105945 32 187 11.0 0.0 0.00 0.00 0.00 95 1000.4
20190117104943 32 174 14.0 0.0 0.00 0.00 0.00 95 1000.5
20190117103940 32 122 13.0 0.0 0.00 0.00 0.00 95 1000.7
20190117102938 32 157 13.0 0.0 0.00 0.00 0.00 95 1001.1
20190117101934 32 147 13.0 0.0 0.00 0.00 0.00 95 1001.3
20190117100932 32 187 12.0 0.0 0.00 0.00 0.00 94 1001.3
20190117095927 32 142 11.0 0.0 0.00 0.00 0.00 94 1001.4
20190117094924 33 170 17.0 0.0 0.00 0.00 0.00 94 1001.6
20190117093922 32 163 14.0 0.0 0.00 0.00 0.00 94 1001.7
20190117092919 32 193 16.0 0.0 0.00 0.00 0.00 94 1001.9
20190117091916 31 195 16.0 0.0 0.00 0.00 0.00 95 1002.1
20190117090914 31 194 16.0 0.0 0.00 0.00 0.00 95 1002.5
20190117085909 31 167 13.0 0.0 0.00 0.00 0.00 95 1002.6
20190117084906 31 175 12.0 0.0 0.00 0.00 0.00 95 1002.7
20190117083904 31 140 10.0 0.0 0.00 0.00 0.00 95 1002.9
20190117082901 30 127 12.0 0.0 0.00 0.00 0.00 95 1003.3
20190117081858 31 166 14.0 0.0 0.00 0.00 0.00 95 1003.5
20190117080856 31 190 15.0 0.0 0.00 0.00 0.00 95 1003.9
20190117075851 31 145 13.0 0.0 0.00 0.00 0.00 95 1004.0
20190117074848 31 147 15.0 0.0 0.00 0.00 0.00 95 1004.2
20190117073846 31 177 17.0 0.0 0.00 0.00 0.00 95 1004.3
20190117072843 31 160 17.0 0.0 0.00 0.00 0.00 95 1004.3
20190117071841 31 192 17.0 0.0 0.00 0.00 0.00 95 1004.3
20190117070840 31 181 15.0 0.0 0.00 0.00 0.00 94 1004.5
20190117065833 31 157 17.0 0.0 0.00 0.00 0.00 94 1004.8
20190117064831 31 149 16.0 0.0 0.00 0.00 0.00 94 1004.9
20190117063828 31 156 14.0 0.0 0.00 0.00 0.00 95 1005.0
20190117062826 31 191 15.0 0.0 0.00 0.00 0.00 95 1005.1
20190117061823 31 156 12.0 0.0 0.00 0.00 0.00 95 1005.4
20190117060820 30 181 10.0 0.0 0.00 0.00 0.00 95 1005.4
20190117055815 30 137 8.0 0.0 0.00 0.00 0.00 95 1005.7
20190117054813 30 140 6.0 0.0 0.00 0.00 0.00 95 1005.8
20190117053810 29 127 6.0 0.0 0.00 0.00 0.00 94 1006.0
20190117052808 29 150 8.0 0.0 0.00 0.00 0.00 94 1006.1
20190117051805 29 127 8.0 0.0 0.00 0.00 0.00 94 1006.2
20190117050803 29 163 8.0 0.0 0.00 0.00 0.00 94 1006.3
20190117045758 29 153 9.0 0.0 0.00 0.00 0.00 94 1006.3
20190117044755 29 129 8.0 0.0 0.00 0.00 0.00 94 1006.5
20190117043752 29 137 9.0 0.0 0.00 0.00 0.00 94 1006.7
20190117042750 29 139 9.0 0.0 0.00 0.00 0.00 94 1006.8
20190117041747 29 139 8.0 0.0 0.00 0.00 0.00 94 1006.8
20190117040745 29 143 11.0 0.0 0.00 0.00 0.00 93 1006.9
20190117035740 30 165 11.0 0.0 0.00 0.00 0.00 93 1007.0
20190117033735 30 158 12.0 0.0 0.00 0.00 0.00 93 1006.9
20190117032732 30 157 12.0 0.0 0.00 0.00 0.00 92 1006.9
20190117031729 30 172 11.0 0.0 0.00 0.00 0.00 92 1007.1
20190117030727 30 172 8.0 0.0 0.00 0.00 0.00 92 1007.3
20190117025722 29 190 9.0 0.0 0.00 0.00 0.00 93 1007.5
20190117024719 29 128 9.0 0.0 0.00 0.00 0.00 93 1007.6
20190117023717 28 129 10.0 0.0 0.00 0.00 0.00 93 1007.7
20190117022714 28 132 10.0 0.0 0.00 0.00 0.00 93 1007.7
20190117021712 28 210 9.0 0.0 0.00 0.00 0.00 93 1007.8
20190117020709 28 133 9.0 0.0 0.00 0.00 0.00 93 1008.0
20190117015704 28 127 8.0 0.0 0.00 0.00 0.00 93 1008.3
20190117014702 28 104 9.0 0.0 0.00 0.00 0.00 92 1008.4
20190117013659 28 132 10.0 0.0 0.00 0.00 0.00 91 1008.8
20190117012656 29 143 8.0 0.0 0.00 0.00 0.00 89 1009.0
20190117011654 29 152 7.0 0.0 0.00 0.00 0.00 89 1009.2
20190117010651 29 142 7.0 0.0 0.00 0.00 0.00 89 1009.2
20190117005646 29 179 7.0 0.0 0.00 0.00 0.00 89 1009.3
20190117004644 29 158 9.0 0.0 0.00 0.00 0.00 88 1009.4
20190117003641 29 169 10.0 0.0 0.00 0.00 0.00 87 1009.4
20190117002638 29 187 9.0 0.0 0.00 0.00 0.00 89 1009.3
20190117001635 28 174 9.0 0.0 0.00 0.00 0.00 90 1009.5
20190117000633 28 162 7.0 0.0 0.00 0.00 0.00 91 1009.7
20190116234625 29 133 10.0 0.0 0.00 0.00 0.00 90 1009.9
20190116233623 29 149 11.0 0.0 0.00 0.00 0.00 89 1010.1
20190116232620 29 132 9.0 0.0 0.00 0.00 0.00 88 1010.1
20190116231617 30 146 10.0 0.0 0.00 0.00 0.00 87 1009.9
20190116225610 30 189 11.0 0.0 0.00 0.00 0.00 87 1009.7
20190116224608 29 170 9.0 0.0 0.00 0.00 0.00 89 1009.6
20190116223605 29 143 8.0 0.0 0.00 0.00 0.00 89 1009.5
20190116222602 29 157 9.0 0.0 0.00 0.00 0.00 87 1009.3
20190116221600 31 152 9.0 0.0 0.00 0.00 0.00 84 1009.3
20190116220558 31 145 9.0 0.0 0.00 0.00 0.00 83 1009.0
20190116215552 31 126 8.0 0.0 0.00 0.00 0.00 81 1008.8
20190116214550 32 134 8.0 0.0 0.00 0.00 0.00 78 1008.8
20190116213547 33 112 8.0 0.0 0.00 0.00 0.00 75 1009.0
20190116212544 33 125 8.0 0.0 0.00 0.00 0.00 75 1009.2
20190116211542 33 149 9.0 0.0 0.00 0.00 0.00 75 1008.9
20190116210539 32 129 11.0 0.0 0.00 0.00 0.00 78 1008.9
20190116205534 31 154 15.0 0.0 0.00 0.00 0.00 81 1008.8
20190116204532 30 162 13.0 0.0 0.00 0.00 0.00 82 1008.7
20190116203529 31 186 13.0 0.0 0.00 0.00 0.00 79 1008.9
20190116202527 31 197 13.0 0.0 0.00 0.00 0.00 81 1009.0
20190116201524 31 197 15.0 0.0 0.00 0.00 0.00 80 1009.0
20190116200521 31 200 16.0 0.0 0.00 0.00 0.00 77 1009.1
20190116195517 32 136 17.0 0.0 0.00 0.00 0.00 75 1009.1
20190116194514 32 175 15.0 0.0 0.00 0.00 0.00 75 1008.8
20190116193511 32 228 18.0 0.0 0.00 0.00 0.00 76 1008.9
20190116192509 32 175 17.0 0.0 0.00 0.00 0.00 74 1009.0
20190116191507 32 211 16.0 0.0 0.00 0.00 0.00 74 1009.2
20190116190504 33 188 16.0 0.0 0.00 0.00 0.00 74 1009.4
20190116185459 33 191 18.0 0.0 0.00 0.00 0.00 74 1009.4
20190116184456 32 179 11.0 0.0 0.00 0.00 0.00 76 1009.6
20190116183454 32 187 13.0 0.0 0.00 0.00 0.00 77 1010.1
20190116182451 32 166 10.0 0.0 0.00 0.00 0.00 77 1009.9
20190116180446 31 197 12.0 0.0 0.00 0.00 0.00 78 1009.7
20190116175441 31 151 6.0 0.0 0.00 0.00 0.00 77 1009.8
20190116174438 31 168 9.0 0.0 0.00 0.00 0.00 78 1009.5
20190116173436 31 188 10.0 0.0 0.00 0.00 0.00 78 1009.4
20190116172433 31 187 11.0 0.0 0.00 0.00 0.00 78 1009.4
20190116171431 30 189 10.0 0.0 0.00 0.00 0.00 78 1009.5
20190116170428 30 179 13.0 0.0 0.00 0.00 0.00 79 1009.2
20190116165423 30 187 12.0 0.0 0.00 0.00 0.00 80 1009.0
20190116163418 29 172 11.0 0.0 0.00 0.00 0.00 83 1008.8
20190116162415 29 197 15.0 0.0 0.00 0.00 0.00 83 1008.8
20190116161413 29 174 12.0 0.0 0.00 0.00 0.00 84 1008.6
20190116160410 29 162 11.0 0.0 0.00 0.00 0.00 84 1008.7
20190116155406 29 181 12.0 0.0 0.00 0.00 0.00 83 1008.5
20190116154403 29 168 11.0 0.0 0.00 0.00 0.00 82 1008.4
20190116153400 29 157 12.0 0.0 0.00 0.00 0.00 81 1008.4